Location: Bush Observatory
(40.2653°N, 94.3194°W)
Time: 19:28:44
(UTC-05:00)

JAS-2 - Visible Passes

Search period start: 02 August 2015 00:00
Search period end: 12 August 2015 00:00
Orbit: 801 x 1321 km, 98.5° (Epoch: 02 August)

Date Brightness Start Highest point End Pass type
(mag) Time Alt. Az. Time Alt. Az. Time Alt. Az.
02 Aug 10.8 04:05:48 10° NNE 04:13:26 53° E 04:20:55 10° S visible
03 Aug 11.9 03:12:09 10° NE 03:17:48 22° E 03:23:39 10° SE visible
03 Aug 10.1 04:55:44 10° N 05:03:37 76° WNW 05:11:17 10° SSW visible
04 Aug 10.8 04:01:00 10° NNE 04:08:35 49° E 04:15:57 10° S visible
04 Aug 10.8 05:46:19 10° N 05:53:23 37° WNW 06:00:12 10° SW visible
05 Aug 12.0 03:07:30 10° NE 03:12:53 21° E 03:18:30 10° SE visible
05 Aug 10.1 04:50:54 10° N 04:58:48 80° WNW 05:06:25 10° SSW visible
06 Aug 10.9 03:56:14 10° NNE 04:03:44 46° E 04:10:52 10° SSE visible
06 Aug 10.7 05:41:25 10° N 05:48:36 39° WNW 05:55:28 10° SW visible
07 Aug 12.1 03:02:54 10° NE 03:07:58 19° E 03:13:16 10° SE visible
07 Aug 10.1 04:46:03 10° NNE 04:54:00 85° WNW 05:01:31 10° SSW visible
08 Aug 11.0 03:51:29 10° NNE 03:58:53 44° E 04:05:40 11° SSE visible
08 Aug 10.6 05:36:33 10° N 05:43:49 41° WNW 05:50:42 10° SW visible
09 Aug 12.1 02:58:20 10° NE 03:03:02 18° E 03:08:00 10° SE visible
09 Aug 10.1 04:41:15 10° NNE 04:49:11 89° WNW 04:56:19 12° SSW visible
10 Aug 11.1 03:46:43 10° NNE 03:53:59 41° E 04:00:29 12° SSE visible
10 Aug 10.6 05:31:41 10° N 05:39:01 43° WNW 05:45:55 10° SW visible
11 Aug 12.1 02:53:49 10° NE 02:58:05 16° E 03:02:40 10° ESE visible
11 Aug 10.1 04:36:27 10° NNE 04:44:22 87° ESE 04:51:07 13° SSW visible
